Weather in Parskiy Ugol

Russia / Tambov Oblast     53°28′57″N   41°15′50″E
temp.,
°C
wind,
m/s
gust,
m/s
humid.,
%
clouds,
%
prec.,
mm/h
press.,
hPa
HPBL,
m
28 february, sun
sun2800:00−12nnw369790 0.0 1013125
03:00−13nw349657 0.1 101457
06:00−12nw239687 0.1 101481
09:00−10nw249684 0.1 1015168
12:00−7nw249190 0.1 1015380
15:00−6nw359295 0.1 1015488
18:00−6nnw3593100 0.1 1016195
21:00−7n2396100 0.2 101856
1 march, mon
mon100:00−10nne1296100 0.0 102021
03:00−11nnw2297100 0.1 102221
06:00−12nw229695 0.0 102321
09:00−11nnw229687 0.1 102523
12:00−8w229237 0.0 1025190
15:00−6wsw359433 0.0 1025232
18:00−7wsw4109668 0.0 1023217
21:00−3wsw6129484 0.1 1021490
2 march, tue
tue200:00−3wsw71295100 0.1 1018446
03:00−1wsw81495100 0.2 1016547
06:00+1w71492100 0.1 1013764
09:00+1w71398100 0.2 1011648
12:00+1wnw612100100 0.1 1009617
15:00+1wnw51099100 0.3 1008573
18:00−1nw41093100 0.1 1008285
21:00−2nw3794100 0.1 1008201
3 march, wed
wed300:00−3nw489598 0.1 1009215
03:00−4nw499492 0.1 1010165
06:00−5nw499593 0.0 1010193
09:00−3nw6119493 0.1 1012525
12:00−2nnw7109196 0.1 1013863
15:00−3nw6109096 0.3 1015830
18:00−5nw51187100 0.1 1016319
21:00−8w479165 0.1 1017109
4 march, thu
thu400:00−7wsw499460 0.0 1015168
03:00−6wsw5109676 0.0 1013221
06:00−5wsw71395100 0.0 1011365
09:00−4wsw8159299 0.1 1009475
12:00−1wsw9168599 0.0 1006742
15:000wsw9158592 0.0 10041017
18:000w81493100 0.1 1003917
21:00−1w61394100 0.2 1004536